Driggs, ID

8:04 PM MST on February 20, 2017 (GMT -0700)
Driggs

Weather History for KDIJ - July, 2013

Change the Weather History Date:

Friday, July 19, 2013

  Actual Average (KJAC) Record (KJAC)
Temperature  
Mean Temperature 66 °F -  
Max Temperature 88 °F 80 °F 90 °F (1960)
Min Temperature 45 °F 42 °F 31 °F (1963)
Cooling Degree Days 2    
Growing Degree Days 16 (Base 50)    
Moisture  
Dew Point 39 °F    
Average Humidity 39    
Maximum Humidity 71    
Minimum Humidity 11    
Precipitation  
Precipitation 0.00 in - - ()
Sea Level Pressure  
Sea Level Pressure 29.95 in    
Wind  
Wind Speed 5 mph (North)    
Max Wind Speed 13 mph    
Max Gust Speed 17 mph    
Visibility 10 miles    
Events      
Averages and records for this station are not official NWS values.
T = Trace of Precipitation, MM = Missing Value Source: NWS Daily Summary

Daily Weather History Graph

Daily Weather History Graph

Search for Another Location

Airport or City:

Trip Planner

Search our weather history database for the weather conditions in past years. The results will help you decide how hot, cold, wet, or windy it might be!

Date:

Astronomy

Jul. 19, 2013 Rise Set
Actual Time 6:00 AM MDT 9:00 PM MDT
Civil Twilight 5:26 AM MDT 9:34 PM MDT
Nautical Twilight 4:42 AM MDT 10:18 PM MDT
Astronomical Twilight 3:50 AM MDT 11:09 PM MDT
Moon 6:06 PM MDT (7/19) 2:45 AM MDT (7/19)
Length of Visible Light 16h 08m
Length of Day
15h 00m
Waxing Gibbous, 87% of the Moon is Illuminated
Jul 19
Waxing Gibbous
Jul 22
Full
Jul 29
Last Quarter
Aug 6
New
Aug 14
First Quarter

Hourly Weather History & Observations

Time (MDT) Temp. Windchill Dew Point Humidity Pressure Visibility Wind Dir Wind Speed Gust Speed Precip Events Conditions
12:56 AM 55.9 °F - 43.0 °F 62% 30.00 in 10.0 mi Calm Calm - N/A   Clear
1:56 AM 52.0 °F - 38.8 °F 61% 29.99 in 10.0 mi ENE 6.9 mph - N/A   Clear
2:56 AM 52.0 °F - 43.0 °F 71% 29.99 in 10.0 mi Calm Calm - N/A   Clear
3:56 AM 52.0 °F - 41.9 °F 69% 29.97 in 10.0 mi East 10.4 mph - N/A   Clear
4:56 AM 50.9 °F - 41.9 °F 71% 29.98 in 10.0 mi SSW 3.5 mph - N/A   Clear
5:56 AM 45.9 °F 43.6 °F 36.9 °F 71% 30.00 in 10.0 mi ENE 4.6 mph - N/A   Clear
6:56 AM 52.9 °F - 38.8 °F 59% 30.00 in 10.0 mi ENE 8.1 mph - N/A   Clear
7:56 AM 63.9 °F - 43.0 °F 47% 29.97 in 10.0 mi NNE 4.6 mph - N/A   Clear
8:56 AM 70.0 °F - 50.9 °F 51% 29.99 in 10.0 mi ESE 3.5 mph - N/A   Clear
9:56 AM 77.0 °F - 48.9 °F 37% 29.98 in 10.0 mi WNW 8.1 mph - N/A   Clear
10:56 AM 79.9 °F - 39.9 °F 24% 29.98 in 10.0 mi NNW 5.8 mph - N/A   Clear
11:56 AM 82.9 °F - 37.9 °F 20% 29.97 in 10.0 mi West 5.8 mph - N/A   Clear
12:56 PM 83.8 °F - 37.9 °F 20% 29.97 in 10.0 mi NNW 5.8 mph - N/A   Clear
1:56 PM 86.9 °F - 36.0 °F 16% 29.96 in 10.0 mi WNW 8.1 mph - N/A   Clear
2:56 PM 88.0 °F - 37.9 °F 17% 29.94 in 10.0 mi NW 12.7 mph 17.3 mph N/A   Clear
3:56 PM 88.9 °F - 34.9 °F 15% 29.92 in 10.0 mi North 8.1 mph - N/A   Clear
4:56 PM 88.0 °F - 30.0 °F 12% 29.92 in 10.0 mi NW 10.4 mph - N/A   Clear
5:56 PM 88.0 °F - 26.1 °F 11% 29.92 in 10.0 mi NNW 4.6 mph - N/A   Clear
6:56 PM 86.0 °F - 31.1 °F 14% 29.89 in 10.0 mi NW 3.5 mph - N/A   Clear
7:56 PM 83.8 °F - 34.9 °F 17% 29.86 in 10.0 mi WNW 3.5 mph - N/A   Clear
8:56 PM 72.9 °F - 46.9 °F 40% 29.87 in 10.0 mi ESE 5.8 mph - N/A   Clear
9:56 PM 64.9 °F - 37.9 °F 37% 29.89 in 10.0 mi East 10.4 mph - N/A   Clear
10:56 PM 63.0 °F - 41.9 °F 46% 29.89 in 10.0 mi West 3.5 mph - N/A   Clear
11:56 PM 54.9 °F - 36.9 °F 51% 29.90 in 10.0 mi ENE 3.5 mph - N/A   Clear